Wetterdaten: Montag, 28.12.2015
Datum Zeit Temp. A. Feuchte A. Luftdruck Regen Wind Richtung Richtung Sonnenschein ET UV Solar Taupunkt Windchill Windben Empfang
28.12.2015 00:00 0,7 C 95 % 1034,0 hPa 0,0 l/m 0,9 km/h (0 Bft) N-NO 14 0 min 0,000 mm 0,0 UV-I 0 W/m -0,0 C 0,7 C 3,2 km/h (1 Bft) 97,25 %
28.12.2015 00:05 0,5 C 95 % 1033,9 hPa 0,0 l/m 1,1 km/h (1 Bft) W-SW 257 0 min 0,000 mm 0,0 UV-I 0 W/m -0,2 C 0,5 C 4,8 km/h (1 Bft) 97,50 %
28.12.2015 00:10 0,2 C 95 % 1033,8 hPa 0,0 l/m 4,1 km/h (1 Bft) S-SW 208 0 min 0,000 mm 0,0 UV-I 0 W/m -0,5 C 0,2 C 6,4 km/h (2 Bft) 98,31 %
28.12.2015 00:15 0,3 C 96 % 1033,8 hPa 0,0 l/m 3,5 km/h (1 Bft) S-SW 204 0 min 0,000 mm 0,0 UV-I 0 W/m -0,3 C 0,3 C 6,4 km/h (2 Bft) 95,41 %
28.12.2015 00:20 0,5 C 96 % 1033,9 hPa 0,0 l/m 0,8 km/h (0 Bft) S-SW 204 0 min 0,000 mm 0,0 UV-I 0 W/m -0,1 C 0,5 C 3,2 km/h (1 Bft) 97,50 %
28.12.2015 00:25 0,8 C 96 % 1034,1 hPa 0,0 l/m 2,1 km/h (1 Bft) O 82 0 min 0,000 mm 0,0 UV-I 0 W/m 0,2 C 0,8 C 4,8 km/h (1 Bft) 97,46 %
28.12.2015 00:30 0,8 C 94 % 1033,9 hPa 0,0 l/m 1,9 km/h (1 Bft) O 82 0 min 0,000 mm 0,0 UV-I 0 W/m -0,1 C 0,8 C 3,2 km/h (1 Bft) 96,40 %
28.12.2015 00:35 0,6 C 95 % 1033,9 hPa 0,0 l/m 0,8 km/h (0 Bft) O 82 0 min 0,000 mm 0,0 UV-I 0 W/m -0,1 C 0,6 C 3,2 km/h (1 Bft) 99,21 %
28.12.2015 00:40 0,7 C 96 % 1033,9 hPa 0,0 l/m 4,0 km/h (1 Bft) O 82 0 min 0,000 mm 0,0 UV-I 0 W/m 0,1 C 0,7 C 6,4 km/h (2 Bft) 100,00 %
28.12.2015 00:45 0,2 C 95 % 1033,9 hPa 0,0 l/m 2,1 km/h (1 Bft) O 80 0 min 0,000 mm 0,0 UV-I 0 W/m -0,5 C 0,2 C 4,8 km/h (1 Bft) 95,83 %
28.12.2015 00:50 0,1 C 96 % 1033,9 hPa 0,0 l/m 0,3 km/h (0 Bft) O 80 0 min 0,000 mm 0,0 UV-I 0 W/m -0,5 C 0,1 C 1,6 km/h (1 Bft) 100,00 %
28.12.2015 00:55 0,2 C 96 % 1033,9 hPa 0,0 l/m 2,3 km/h (1 Bft) O 80 0 min 0,000 mm 0,0 UV-I 0 W/m -0,4 C 0,2 C 3,2 km/h (1 Bft) 100,00 %
28.12.2015 01:00 0,2 C 96 % 1033,8 hPa 0,0 l/m 2,9 km/h (1 Bft) O-NO 75 0 min 0,000 mm 0,0 UV-I 0 W/m -0,4 C 0,2 C 6,4 km/h (2 Bft) 98,29 %
28.12.2015 01:05 0,0 C 96 % 1033,8 hPa 0,0 l/m 3,9 km/h (1 Bft) O-NO 74 0 min 0,000 mm 0,0 UV-I 0 W/m -0,6 C 0,0 C 6,4 km/h (2 Bft) 99,21 %
28.12.2015 01:10 -0,2 C 96 % 1033,8 hPa 0,0 l/m 2,8 km/h (1 Bft) O 79 0 min 0,000 mm 0,0 UV-I 0 W/m -0,8 C -0,2 C 6,4 km/h (2 Bft) 97,37 %
28.12.2015 01:15 -0,4 C 96 % 1033,8 hPa 0,0 l/m 0,9 km/h (0 Bft) O-SO 107 0 min 0,000 mm 0,0 UV-I 0 W/m -1,0 C -0,4 C 3,2 km/h (1 Bft) 100,00 %
28.12.2015 01:20 -0,6 C 96 % 1033,8 hPa 0,0 l/m 1,1 km/h (1 Bft) O-SO 107 0 min 0,000 mm 0,0 UV-I 0 W/m -1,2 C -0,6 C 3,2 km/h (1 Bft) 100,00 %
28.12.2015 01:25 -0,6 C 96 % 1033,8 hPa 0,0 l/m 0,2 km/h (0 Bft) O-SO 107 0 min 0,000 mm 0,0 UV-I 0 W/m -1,2 C -0,6 C 1,6 km/h (1 Bft) 99,21 %
28.12.2015 01:30 -0,6 C 97 % 1033,8 hPa 0,0 l/m 2,9 km/h (1 Bft) SO 142 0 min 0,000 mm 0,0 UV-I 0 W/m -1,0 C -0,6 C 4,8 km/h (1 Bft) 100,00 %
28.12.2015 01:35 -0,7 C 97 % 1033,8 hPa 0,0 l/m 0,7 km/h (0 Bft) SO 142 0 min 0,000 mm 0,0 UV-I 0 W/m -1,1 C -0,7 C 3,2 km/h (1 Bft) 100,00 %
28.12.2015 01:40 -0,6 C 97 % 1034,0 hPa 0,0 l/m 1,1 km/h (1 Bft) SO 142 0 min 0,000 mm 0,0 UV-I 0 W/m -1,0 C -0,6 C 3,2 km/h (1 Bft) 98,35 %
28.12.2015 01:45 -1,0 C 96 % 1034,1 hPa 0,0 l/m 0,1 km/h (0 Bft) SO 129 0 min 0,000 mm 0,0 UV-I 0 W/m -1,6 C -1,0 C 1,6 km/h (1 Bft) 100,00 %
28.12.2015 01:50 -1,1 C 97 % 1034,1 hPa 0,0 l/m 0,2 km/h (0 Bft) SO 128 0 min 0,000 mm 0,0 UV-I 0 W/m -1,5 C -1,1 C 1,6 km/h (1 Bft) 99,17 %
28.12.2015 01:55 -0,7 C 97 % 1034,2 hPa 0,0 l/m 2,8 km/h (1 Bft) O-NO 62 0 min 0,000 mm 0,0 UV-I 0 W/m -1,1 C -0,7 C 4,8 km/h (1 Bft) 98,31 %
28.12.2015 02:00 -0,3 C 97 % 1034,3 hPa 0,0 l/m 2,8 km/h (1 Bft) O-NO 62 0 min 0,000 mm 0,0 UV-I 0 W/m -0,7 C -0,3 C 4,8 km/h (1 Bft) 99,08 %
28.12.2015 02:05 -0,2 C 98 % 1034,2 hPa 0,0 l/m 2,3 km/h (1 Bft) O-NO 62 0 min 0,000 mm 0,0 UV-I 0 W/m -0,5 C -0,2 C 3,2 km/h (1 Bft) 99,17 %
28.12.2015 02:10 -0,5 C 97 % 1034,0 hPa 0,0 l/m 1,0 km/h (0 Bft) O-SO 107 0 min 0,000 mm 0,0 UV-I 0 W/m -0,9 C -0,5 C 1,6 km/h (1 Bft) 99,15 %
28.12.2015 02:15 -0,6 C 97 % 1034,0 hPa 0,0 l/m 2,1 km/h (1 Bft) S-SO 164 0 min 0,000 mm 0,0 UV-I 0 W/m -1,0 C -0,6 C 8,0 km/h (2 Bft) 96,12 %
28.12.2015 02:20 -0,7 C 97 % 1034,0 hPa 0,0 l/m 6,7 km/h (2 Bft) S 174 0 min 0,000 mm 0,0 UV-I 0 W/m -1,1 C -1,0 C 9,7 km/h (2 Bft) 97,67 %
28.12.2015 02:25 -0,6 C 97 % 1034,0 hPa 0,0 l/m 4,2 km/h (1 Bft) S-SO 165 0 min 0,000 mm 0,0 UV-I 0 W/m -1,0 C -0,6 C 6,4 km/h (2 Bft) 98,31 %
28.12.2015 02:30 -0,6 C 97 % 1033,9 hPa 0,0 l/m 5,9 km/h (2 Bft) S 175 0 min 0,000 mm 0,0 UV-I 0 W/m -1,0 C -0,6 C 9,7 km/h (2 Bft) 96,33 %
28.12.2015 02:35 -0,5 C 97 % 1033,9 hPa 0,0 l/m 5,0 km/h (1 Bft) S-SO 161 0 min 0,000 mm 0,0 UV-I 0 W/m -0,9 C -0,5 C 8,0 km/h (2 Bft) 97,50 %
28.12.2015 02:40 -0,4 C 97 % 1033,8 hPa 0,0 l/m 5,0 km/h (1 Bft) S 173 0 min 0,000 mm 0,0 UV-I 0 W/m -0,8 C -0,4 C 9,7 km/h (2 Bft) 97,58 %
28.12.2015 02:45 -0,4 C 97 % 1033,9 hPa 0,0 l/m 3,4 km/h (1 Bft) S 171 0 min 0,000 mm 0,0 UV-I 0 W/m -0,8 C -0,4 C 6,4 km/h (2 Bft) 97,50 %
28.12.2015 02:50 -0,5 C 97 % 1033,9 hPa 0,0 l/m 1,1 km/h (1 Bft) S 171 0 min 0,000 mm 0,0 UV-I 0 W/m -0,9 C -0,5 C 3,2 km/h (1 Bft) 99,13 %
28.12.2015 02:55 -0,5 C 97 % 1034,0 hPa 0,0 l/m 2,3 km/h (1 Bft) NO 42 0 min 0,000 mm 0,0 UV-I 0 W/m -0,9 C -0,5 C 4,8 km/h (1 Bft) 99,12 %
28.12.2015 03:00 -0,8 C 97 % 1033,9 hPa 0,0 l/m 1,0 km/h (0 Bft) NO 42 0 min 0,000 mm 0,0 UV-I 0 W/m -1,2 C -0,8 C 3,2 km/h (1 Bft) 97,58 %
28.12.2015 03:05 -0,9 C 97 % 1033,9 hPa 0,0 l/m 0,0 km/h (0 Bft) NO 42 0 min 0,000 mm 0,0 UV-I 0 W/m -1,3 C -0,9 C 1,6 km/h (1 Bft) 99,15 %
28.12.2015 03:10 -1,2 C 97 % 1033,9 hPa 0,0 l/m 0,0 km/h (0 Bft) NO 42 0 min 0,000 mm 0,0 UV-I 0 W/m -1,6 C -1,2 C 0,0 km/h (0 Bft) 98,10 %
28.12.2015 03:15 -1,2 C 97 % 1033,9 hPa 0,0 l/m 0,4 km/h (0 Bft) NO 42 0 min 0,000 mm 0,0 UV-I 0 W/m -1,6 C -1,2 C 3,2 km/h (1 Bft) 99,17 %
28.12.2015 03:20 -1,3 C 97 % 1033,9 hPa 0,0 l/m 0,8 km/h (0 Bft) NO 42 0 min 0,000 mm 0,0 UV-I 0 W/m -1,7 C -1,3 C 1,6 km/h (1 Bft) 99,15 %
28.12.2015 03:25 -1,2 C 97 % 1033,9 hPa 0,0 l/m 1,2 km/h (1 Bft) NO 42 0 min 0,000 mm 0,0 UV-I 0 W/m -1,6 C -1,2 C 3,2 km/h (1 Bft) 98,37 %
28.12.2015 03:30 -1,3 C 97 % 1034,0 hPa 0,0 l/m 1,3 km/h (1 Bft) NO 42 0 min 0,000 mm 0,0 UV-I 0 W/m -1,7 C -1,3 C 3,2 km/h (1 Bft) 100,00 %
28.12.2015 03:35 -1,2 C 97 % 1033,9 hPa 0,0 l/m 1,4 km/h (1 Bft) NO 40 0 min 0,000 mm 0,0 UV-I 0 W/m -1,6 C -1,2 C 3,2 km/h (1 Bft) 99,06 %
28.12.2015 03:40 -1,2 C 97 % 1033,8 hPa 0,0 l/m 3,0 km/h (1 Bft) S-SW 200 0 min 0,000 mm 0,0 UV-I 0 W/m -1,6 C -1,2 C 4,8 km/h (1 Bft) 98,48 %
28.12.2015 03:45 -1,1 C 97 % 1033,7 hPa 0,0 l/m 4,1 km/h (1 Bft) S 178 0 min 0,000 mm 0,0 UV-I 0 W/m -1,5 C -1,1 C 8,0 km/h (2 Bft) 100,00 %
28.12.2015 03:50 -0,8 C 98 % 1033,6 hPa 0,0 l/m 5,7 km/h (1 Bft) S 170 0 min 0,000 mm 0,0 UV-I 0 W/m -1,1 C -0,8 C 8,0 km/h (2 Bft) 98,25 %
28.12.2015 03:55 -0,7 C 98 % 1033,6 hPa 0,0 l/m 3,7 km/h (1 Bft) S 169 0 min 0,000 mm 0,0 UV-I 0 W/m -1,0 C -0,7 C 6,4 km/h (2 Bft) 99,15 %
28.12.2015 04:00 -0,6 C 98 % 1033,6 hPa 0,0 l/m 1,8 km/h (1 Bft) S-SO 154 0 min 0,000 mm 0,0 UV-I 0 W/m -0,9 C -0,6 C 4,8 km/h (1 Bft) 99,21 %
28.12.2015 04:05 -0,7 C 97 % 1033,6 hPa 0,0 l/m 1,4 km/h (1 Bft) S-SO 157 0 min 0,000 mm 0,0 UV-I 0 W/m -1,1 C -0,7 C 3,2 km/h (1 Bft) 100,00 %
28.12.2015 04:10 -0,5 C 98 % 1033,6 hPa 0,0 l/m 0,7 km/h (0 Bft) S-SO 157 0 min 0,000 mm 0,0 UV-I 0 W/m -0,8 C -0,5 C 3,2 km/h (1 Bft) 100,00 %
28.12.2015 04:15 -1,0 C 97 % 1033,6 hPa 0,0 l/m 0,4 km/h (0 Bft) NO 34 0 min 0,000 mm 0,0 UV-I 0 W/m -1,4 C -1,0 C 3,2 km/h (1 Bft) 99,08 %
28.12.2015 04:20 -1,4 C 97 % 1033,7 hPa 0,0 l/m 6,8 km/h (2 Bft) NO 48 0 min 0,000 mm 0,0 UV-I 0 W/m -1,8 C -1,8 C 11,3 km/h (2 Bft) 95,93 %
28.12.2015 04:25 -1,7 C 97 % 1033,5 hPa 0,0 l/m 6,7 km/h (2 Bft) NO 40 0 min 0,000 mm 0,0 UV-I 0 W/m -2,1 C -2,0 C 9,7 km/h (2 Bft) 98,31 %
28.12.2015 04:30 -1,7 C 97 % 1033,5 hPa 0,0 l/m 4,8 km/h (1 Bft) N-NO 17 0 min 0,000 mm 0,0 UV-I 0 W/m -2,1 C -1,7 C 6,4 km/h (2 Bft) 96,58 %
28.12.2015 04:35 -1,6 C 97 % 1033,5 hPa 0,0 l/m 4,2 km/h (1 Bft) N-NO 23 0 min 0,000 mm 0,0 UV-I 0 W/m -2,0 C -1,6 C 6,4 km/h (2 Bft) 97,46 %
28.12.2015 04:40 -1,6 C 97 % 1033,5 hPa 0,0 l/m 3,8 km/h (1 Bft) NO 44 0 min 0,000 mm 0,0 UV-I 0 W/m -2,0 C -1,6 C 4,8 km/h (1 Bft) 96,43 %
28.12.2015 04:45 -1,7 C 97 % 1033,5 hPa 0,0 l/m 4,0 km/h (1 Bft) NO 42 0 min 0,000 mm 0,0 UV-I 0 W/m -2,1 C -1,7 C 6,4 km/h (2 Bft) 97,56 %
28.12.2015 04:50 -1,9 C 97 % 1033,4 hPa 0,0 l/m 2,1 km/h (1 Bft) NO 42 0 min 0,000 mm 0,0 UV-I 0 W/m -2,3 C -1,9 C 3,2 km/h (1 Bft) 97,25 %
28.12.2015 04:55 -1,8 C 97 % 1033,4 hPa 0,0 l/m 2,0 km/h (1 Bft) NO 42 0 min 0,000 mm 0,0 UV-I 0 W/m -2,2 C -1,8 C 3,2 km/h (1 Bft) 97,46 %
28.12.2015 05:00 -1,7 C 97 % 1033,3 hPa 0,0 l/m 1,4 km/h (1 Bft) NO 42 0 min 0,000 mm 0,0 UV-I 0 W/m -2,1 C -1,7 C 3,2 km/h (1 Bft) 100,00 %
28.12.2015 05:05 -1,7 C 97 % 1033,3 hPa 0,0 l/m 0,4 km/h (0 Bft) NO 42 0 min 0,000 mm 0,0 UV-I 0 W/m -2,1 C -1,7 C 3,2 km/h (1 Bft) 99,15 %
28.12.2015 05:10 -1,7 C 97 % 1033,3 hPa 0,0 l/m 0,9 km/h (0 Bft) NO 42 0 min 0,000 mm 0,0 UV-I 0 W/m -2,1 C -1,7 C 3,2 km/h (1 Bft) 97,44 %
28.12.2015 05:15 -1,8 C 97 % 1033,2 hPa 0,0 l/m 0,6 km/h (0 Bft) NO 42 0 min 0,000 mm 0,0 UV-I 0 W/m -2,2 C -1,8 C 3,2 km/h (1 Bft) 99,15 %
28.12.2015 05:20 -1,8 C 97 % 1033,2 hPa 0,0 l/m 1,4 km/h (1 Bft) NO 42 0 min 0,000 mm 0,0 UV-I 0 W/m -2,2 C -1,8 C 3,2 km/h (1 Bft) 100,00 %
28.12.2015 05:25 -1,8 C 97 % 1033,1 hPa 0,0 l/m 1,0 km/h (0 Bft) NO 42 0 min 0,000 mm 0,0 UV-I 0 W/m -2,2 C -1,8 C 1,6 km/h (1 Bft) 99,15 %
28.12.2015 05:30 -1,9 C 97 % 1033,1 hPa 0,0 l/m 0,0 km/h (0 Bft) NO 42 0 min 0,000 mm 0,0 UV-I 0 W/m -2,3 C -1,9 C 1,6 km/h (1 Bft) 99,15 %
28.12.2015 05:35 -2,1 C 97 % 1033,2 hPa 0,0 l/m 0,4 km/h (0 Bft) NO 42 0 min 0,000 mm 0,0 UV-I 0 W/m -2,5 C -2,1 C 1,6 km/h (1 Bft) 100,00 %
28.12.2015 05:40 -2,1 C 97 % 1033,1 hPa 0,0 l/m 1,6 km/h (1 Bft) NO 42 0 min 0,000 mm 0,0 UV-I 0 W/m -2,5 C -2,1 C 3,2 km/h (1 Bft) 100,00 %
28.12.2015 05:45 -2,1 C 97 % 1033,1 hPa 0,0 l/m 2,4 km/h (1 Bft) O-NO 58 0 min 0,000 mm 0,0 UV-I 0 W/m -2,5 C -2,1 C 3,2 km/h (1 Bft) 98,35 %
28.12.2015 05:50 -2,1 C 97 % 1033,1 hPa 0,0 l/m 0,6 km/h (0 Bft) O-NO 58 0 min 0,000 mm 0,0 UV-I 0 W/m -2,5 C -2,1 C 3,2 km/h (1 Bft) 100,00 %
28.12.2015 05:55 -2,2 C 97 % 1033,0 hPa 0,0 l/m 0,0 km/h (0 Bft) O-NO 58 0 min 0,000 mm 0,0 UV-I 0 W/m -2,6 C -2,2 C 0,0 km/h (0 Bft) 100,00 %
28.12.2015 06:00 -2,3 C 97 % 1033,0 hPa 0,0 l/m 0,3 km/h (0 Bft) O-NO 58 0 min 0,000 mm 0,0 UV-I 0 W/m -2,7 C -2,3 C 1,6 km/h (1 Bft) 99,15 %
28.12.2015 06:05 -2,3 C 97 % 1033,0 hPa 0,0 l/m 0,0 km/h (0 Bft) O-NO 58 0 min 0,000 mm 0,0 UV-I 0 W/m -2,7 C -2,3 C 0,0 km/h (0 Bft) 99,15 %
28.12.2015 06:10 -2,5 C 97 % 1033,0 hPa 0,0 l/m 0,3 km/h (0 Bft) NO 34 0 min 0,000 mm 0,0 UV-I 0 W/m -2,9 C -2,5 C 3,2 km/h (1 Bft) 99,08 %
28.12.2015 06:15 -2,7 C 97 % 1032,9 hPa 0,0 l/m 1,2 km/h (1 Bft) NO 34 0 min 0,000 mm 0,0 UV-I 0 W/m -3,1 C -2,7 C 1,6 km/h (1 Bft) 99,17 %
28.12.2015 06:20 -2,8 C 97 % 1032,8 hPa 0,0 l/m 1,8 km/h (1 Bft) NO 34 0 min 0,000 mm 0,0 UV-I 0 W/m -3,2 C -2,8 C 3,2 km/h (1 Bft) 100,00 %
28.12.2015 06:25 -2,9 C 97 % 1032,7 hPa 0,0 l/m 3,1 km/h (1 Bft) S-SO 148 0 min 0,000 mm 0,0 UV-I 0 W/m -3,3 C -2,9 C 4,8 km/h (1 Bft) 99,17 %
28.12.2015 06:30 -2,8 C 97 % 1032,8 hPa 0,0 l/m 3,1 km/h (1 Bft) S-SO 158 0 min 0,000 mm 0,0 UV-I 0 W/m -3,2 C -2,8 C 4,8 km/h (1 Bft) 94,87 %
28.12.2015 06:35 -2,7 C 97 % 1032,9 hPa 0,0 l/m 1,2 km/h (1 Bft) S-SO 158 0 min 0,000 mm 0,0 UV-I 0 W/m -3,1 C -2,7 C 3,2 km/h (1 Bft) 97,46 %
28.12.2015 06:40 -2,3 C 98 % 1032,8 hPa 0,0 l/m 0,1 km/h (0 Bft) S-SO 158 0 min 0,000 mm 0,0 UV-I 0 W/m -2,6 C -2,3 C 1,6 km/h (1 Bft) 96,58 %
28.12.2015 06:45 -2,2 C 98 % 1032,7 hPa 0,0 l/m 0,0 km/h (0 Bft) S-SO 158 0 min 0,000 mm 0,0 UV-I 0 W/m -2,5 C -2,2 C 0,0 km/h (0 Bft) 96,61 %
28.12.2015 06:50 -2,2 C 98 % 1032,7 hPa 0,0 l/m 0,6 km/h (0 Bft) S-SO 158 0 min 0,000 mm 0,0 UV-I 0 W/m -2,5 C -2,2 C 1,6 km/h (1 Bft) 98,11 %
28.12.2015 06:55 -2,4 C 98 % 1032,6 hPa 0,0 l/m 0,0 km/h (0 Bft) S-SO 158 0 min 0,000 mm 0,0 UV-I 0 W/m -2,7 C -2,4 C 0,0 km/h (0 Bft) 96,69 %
28.12.2015 07:00 -2,4 C 98 % 1032,7 hPa 0,0 l/m 0,4 km/h (0 Bft) S-SO 158 0 min 0,000 mm 0,0 UV-I 0 W/m -2,7 C -2,4 C 1,6 km/h (1 Bft) 95,00 %
28.12.2015 07:05 -2,8 C 97 % 1032,7 hPa 0,0 l/m 0,1 km/h (0 Bft) S-SO 158 0 min 0,000 mm 0,0 UV-I 0 W/m -3,2 C -2,8 C 1,6 km/h (1 Bft) 98,31 %
28.12.2015 07:10 -2,9 C 97 % 1032,7 hPa 0,0 l/m 0,5 km/h (0 Bft) O 81 0 min 0,000 mm 0,0 UV-I 0 W/m -3,3 C -2,9 C 3,2 km/h (1 Bft) 96,58 %
28.12.2015 07:15 -3,1 C 97 % 1032,7 hPa 0,0 l/m 3,6 km/h (1 Bft) N-NO 33 0 min 0,000 mm 0,0 UV-I 0 W/m -3,5 C -3,1 C 6,4 km/h (2 Bft) 98,35 %
28.12.2015 07:20 -3,3 C 97 % 1032,7 hPa 0,0 l/m 5,4 km/h (1 Bft) NO 40 0 min 0,000 mm 0,0 UV-I 0 W/m -3,7 C -3,3 C 6,4 km/h (2 Bft) 99,06 %
28.12.2015 07:25 -3,4 C 97 % 1032,7 hPa 0,0 l/m 4,4 km/h (1 Bft) NO 51 0 min 0,000 mm 0,0 UV-I 0 W/m -3,8 C -3,4 C 6,4 km/h (2 Bft) 100,00 %
28.12.2015 07:30 -3,4 C 97 % 1032,8 hPa 0,0 l/m 3,7 km/h (1 Bft) NO 51 0 min 0,000 mm 0,0 UV-I 0 W/m -3,8 C -3,4 C 4,8 km/h (1 Bft) 98,31 %
28.12.2015 07:35 -3,6 C 97 % 1032,9 hPa 0,0 l/m 2,9 km/h (1 Bft) NO 44 0 min 0,000 mm 0,0 UV-I 0 W/m -4,0 C -3,6 C 4,8 km/h (1 Bft) 98,33 %
28.12.2015 07:40 -3,6 C 97 % 1032,7 hPa 0,0 l/m 0,7 km/h (0 Bft) NO 44 0 min 0,000 mm 0,0 UV-I 0 W/m -4,0 C -3,6 C 3,2 km/h (1 Bft) 100,00 %
28.12.2015 07:45 -3,6 C 97 % 1032,7 hPa 0,0 l/m 0,1 km/h (0 Bft) NO 44 0 min 0,000 mm 0,0 UV-I 0 W/m -4,0 C -3,6 C 1,6 km/h (1 Bft) 100,00 %
28.12.2015 07:50 -3,7 C 97 % 1032,7 hPa 0,0 l/m 0,8 km/h (0 Bft) NO 44 0 min 0,000 mm 0,0 UV-I 0 W/m -4,1 C -3,7 C 1,6 km/h (1 Bft) 98,29 %
28.12.2015 07:55 -3,6 C 97 % 1032,7 hPa 0,0 l/m 2,2 km/h (1 Bft) O 88 0 min 0,000 mm 0,0 UV-I 3 W/m -4,0 C -3,6 C 3,2 km/h (1 Bft) 98,31 %
28.12.2015 08:00 -3,3 C 97 % 1032,8 hPa 0,0 l/m 1,0 km/h (0 Bft) O-SO 117 0 min 0,000 mm 0,0 UV-I 6 W/m -3,7 C -3,3 C 3,2 km/h (1 Bft) 98,11 %
28.12.2015 08:05 -3,1 C 97 % 1032,7 hPa 0,0 l/m 0,8 km/h (0 Bft) SO 136 0 min 0,000 mm 0,0 UV-I 9 W/m -3,5 C -3,1 C 3,2 km/h (1 Bft) 98,45 %
28.12.2015 08:10 -2,9 C 98 % 1032,7 hPa 0,0 l/m 2,0 km/h (1 Bft) S-SO 153 0 min 0,000 mm 0,0 UV-I 11 W/m -3,2 C -2,9 C 4,8 km/h (1 Bft) 100,00 %
28.12.2015 08:15 -2,7 C 98 % 1032,6 hPa 0,0 l/m 1,3 km/h (1 Bft) S-SO 157 0 min 0,000 mm 0,0 UV-I 12 W/m -3,0 C -2,7 C 4,8 km/h (1 Bft) 98,29 %
28.12.2015 08:20 -3,0 C 97 % 1032,7 hPa 0,0 l/m 4,0 km/h (1 Bft) S-SO 154 0 min 0,000 mm 0,0 UV-I 13 W/m -3,4 C -3,0 C 8,0 km/h (2 Bft) 99,17 %
28.12.2015 08:25 -2,9 C 97 % 1032,6 hPa 0,0 l/m 2,3 km/h (1 Bft) S-SO 162 0 min 0,000 mm 0,0 UV-I 15 W/m -3,3 C -2,9 C 6,4 km/h (2 Bft) 100,00 %
28.12.2015 08:30 -2,5 C 97 % 1032,7 hPa 0,0 l/m 1,1 km/h (1 Bft) S-SO 160 0 min 0,000 mm 0,0 UV-I 18 W/m -2,9 C -2,5 C 4,8 km/h (1 Bft) 97,44 %
28.12.2015 08:35 -2,3 C 98 % 1032,8 hPa 0,0 l/m 1,1 km/h (1 Bft) S-SO 162 0 min 0,000 mm 0,0 UV-I 24 W/m -2,6 C -2,3 C 6,4 km/h (2 Bft) 96,23 %
28.12.2015 08:40 -2,4 C 97 % 1032,8 hPa 0,0 l/m 0,0 km/h (0 Bft) S-SO 162 0 min 0,000 mm 0,0 UV-I 33 W/m -2,8 C -2,4 C 0,0 km/h (0 Bft) 96,69 %
28.12.2015 08:45 -2,4 C 97 % 1032,9 hPa 0,0 l/m 0,9 km/h (0 Bft) NO 47 0 min 0,000 mm 0,0 UV-I 48 W/m -2,8 C -2,4 C 4,8 km/h (1 Bft) 97,46 %
28.12.2015 08:50 -2,4 C 97 % 1033,1 hPa 0,0 l/m 4,9 km/h (1 Bft) NO 46 0 min 0,000 mm 0,0 UV-I 60 W/m -2,8 C -2,4 C 8,0 km/h (2 Bft) 97,46 %
28.12.2015 08:55 -2,3 C 97 % 1033,2 hPa 0,0 l/m 5,4 km/h (1 Bft) N-NO 26 0 min 0,000 mm 0,0 UV-I 64 W/m -2,7 C -2,3 C 8,0 km/h (2 Bft) 94,92 %
28.12.2015 09:00 -2,3 C 97 % 1033,2 hPa 0,0 l/m 5,7 km/h (1 Bft) N-NO 21 5 min 0,000 mm 0,0 UV-I 75 W/m -2,7 C -2,3 C 8,0 km/h (2 Bft) 97,46 %
28.12.2015 09:05 -2,3 C 97 % 1033,2 hPa 0,0 l/m 4,1 km/h (1 Bft) N-NO 22 5 min 0,000 mm 0,0 UV-I 86 W/m -2,7 C -2,3 C 6,4 km/h (2 Bft) 97,48 %
28.12.2015 09:10 -2,2 C 97 % 1033,2 hPa 0,0 l/m 3,1 km/h (1 Bft) N-NO 24 5 min 0,000 mm 0,0 UV-I 101 W/m -2,6 C -2,2 C 4,8 km/h (1 Bft) 99,07 %
28.12.2015 09:15 -2,1 C 97 % 1033,2 hPa 0,0 l/m 1,5 km/h (1 Bft) N-NO 24 5 min 0,000 mm 0,0 UV-I 107 W/m -2,5 C -2,1 C 3,2 km/h (1 Bft) 98,31 %
28.12.2015 09:20 -2,1 C 97 % 1033,1 hPa 0,0 l/m 0,4 km/h (0 Bft) N-NO 24 5 min 0,000 mm 0,0 UV-I 105 W/m -2,5 C -2,1 C 3,2 km/h (1 Bft) 100,00 %
28.12.2015 09:25 -2,0 C 97 % 1033,1 hPa 0,0 l/m 0,1 km/h (0 Bft) N-NO 24 5 min 0,000 mm 0,0 UV-I 110 W/m -2,4 C -2,0 C 1,6 km/h (1 Bft) 99,17 %
28.12.2015 09:30 -1,9 C 97 % 1033,1 hPa 0,0 l/m 0,3 km/h (0 Bft) N-NO 24 5 min 0,000 mm 0,0 UV-I 114 W/m -2,3 C -1,9 C 1,6 km/h (1 Bft) 99,15 %
28.12.2015 09:35 -1,7 C 97 % 1033,1 hPa 0,0 l/m 0,2 km/h (0 Bft) N-NO 24 5 min 0,000 mm 0,0 UV-I 126 W/m -2,1 C -1,7 C 1,6 km/h (1 Bft) 98,29 %
28.12.2015 09:40 -1,6 C 97 % 1033,1 hPa 0,0 l/m 0,3 km/h (0 Bft) N-NO 24 5 min 0,000 mm 0,0 UV-I 137 W/m -2,0 C -1,6 C 1,6 km/h (1 Bft) 95,87 %
28.12.2015 09:45 -1,4 C 97 % 1033,0 hPa 0,0 l/m 2,6 km/h (1 Bft) S 181 5 min 0,000 mm 0,0 UV-I 147 W/m -1,8 C -1,4 C 6,4 km/h (2 Bft) 99,15 %
28.12.2015 09:50 -1,3 C 98 % 1033,0 hPa 0,0 l/m 4,1 km/h (1 Bft) S-SW 200 5 min 0,000 mm 0,0 UV-I 155 W/m -1,6 C -1,3 C 4,8 km/h (1 Bft) 100,00 %
28.12.2015 09:55 -1,1 C 97 % 1033,0 hPa 0,0 l/m 2,9 km/h (1 Bft) SW 219 5 min 0,000 mm 0,0 UV-I 167 W/m -1,5 C -1,1 C 4,8 km/h (1 Bft) 98,39 %
28.12.2015 10:00 -0,8 C 98 % 1033,1 hPa 0,0 l/m 1,4 km/h (1 Bft) SW 219 5 min 0,051 mm 0,0 UV-I 173 W/m -1,1 C -0,8 C 3,2 km/h (1 Bft) 100,00 %
28.12.2015 10:05 -0,6 C 98 % 1033,0 hPa 0,0 l/m 0,5 km/h (0 Bft) SW 219 5 min 0,000 mm 0,0 UV-I 182 W/m -0,9 C -0,6 C 1,6 km/h (1 Bft) 100,00 %
28.12.2015 10:10 -0,4 C 97 % 1033,0 hPa 0,0 l/m 1,0 km/h (0 Bft) SW 219 5 min 0,000 mm 0,0 UV-I 189 W/m -0,8 C -0,4 C 3,2 km/h (1 Bft) 97,46 %
28.12.2015 10:15 -0,2 C 97 % 1033,0 hPa 0,0 l/m 0,1 km/h (0 Bft) SW 219 5 min 0,000 mm 0,0 UV-I 194 W/m -0,6 C -0,2 C 1,6 km/h (1 Bft) 99,08 %
28.12.2015 10:20 -0,1 C 97 % 1032,9 hPa 0,0 l/m 0,0 km/h (0 Bft) SW 219 5 min 0,000 mm 0,0 UV-I 197 W/m -0,5 C -0,1 C 1,6 km/h (1 Bft) 96,58 %
28.12.2015 10:25 0,1 C 97 % 1032,9 hPa 0,0 l/m 0,0 km/h (0 Bft) SW 219 5 min 0,000 mm 0,0 UV-I 200 W/m -0,3 C 0,1 C 1,6 km/h (1 Bft) 97,52 %
28.12.2015 10:30 0,4 C 97 % 1032,9 hPa 0,0 l/m 0,2 km/h (0 Bft) SW 219 5 min 0,000 mm 0,0 UV-I 199 W/m -0,0 C 0,4 C 1,6 km/h (1 Bft) 96,58 %
28.12.2015 10:35 0,7 C 96 % 1032,8 hPa 0,0 l/m 0,3 km/h (0 Bft) SW 219 5 min 0,000 mm 0,0 UV-I 209 W/m 0,1 C 0,7 C 1,6 km/h (1 Bft) 97,46 %
28.12.2015 10:40 0,9 C 95 % 1032,8 hPa 0,0 l/m 0,7 km/h (0 Bft) SW 219 5 min 0,000 mm 0,1 UV-I 221 W/m 0,2 C 0,9 C 3,2 km/h (1 Bft) 97,46 %
28.12.2015 10:45 0,9 C 95 % 1032,8 hPa 0,0 l/m 0,9 km/h (0 Bft) N-NW 345 5 min 0,000 mm 0,5 UV-I 221 W/m 0,2 C 0,9 C 3,2 km/h (1 Bft) 98,33 %
28.12.2015 10:50 0,8 C 95 % 1032,8 hPa 0,0 l/m 3,5 km/h (1 Bft) N-NO 15 5 min 0,000 mm 0,5 UV-I 226 W/m 0,1 C 0,8 C 4,8 km/h (1 Bft) 97,46 %
28.12.2015 10:55 0,8 C 95 % 1032,7 hPa 0,0 l/m 3,4 km/h (1 Bft) N-NO 15 5 min 0,000 mm 0,5 UV-I 229 W/m 0,1 C 0,8 C 4,8 km/h (1 Bft) 98,20 %
28.12.2015 11:00 0,9 C 96 % 1032,7 hPa 0,0 l/m 1,8 km/h (1 Bft) N-NO 16 5 min 0,076 mm 0,5 UV-I 218 W/m 0,3 C 0,9 C 4,8 km/h (1 Bft) 99,15 %
28.12.2015 11:05 0,9 C 95 % 1032,6 hPa 0,0 l/m 2,2 km/h (1 Bft) N-NO 16 5 min 0,000 mm 0,5 UV-I 234 W/m 0,2 C 0,9 C 3,2 km/h (1 Bft) 100,00 %
28.12.2015 11:10 0,9 C 95 % 1032,5 hPa 0,0 l/m 3,1 km/h (1 Bft) N-NO 16 5 min 0,000 mm 0,5 UV-I 238 W/m 0,2 C 0,9 C 4,8 km/h (1 Bft) 98,29 %
28.12.2015 11:15 0,9 C 95 % 1032,5 hPa 0,0 l/m 3,4 km/h (1 Bft) NO 37 5 min 0,000 mm 0,6 UV-I 245 W/m 0,2 C 0,9 C 4,8 km/h (1 Bft) 98,31 %
28.12.2015 11:20 0,9 C 95 % 1032,5 hPa 0,0 l/m 3,8 km/h (1 Bft) N-NO 32 5 min 0,000 mm 0,6 UV-I 249 W/m 0,2 C 0,9 C 4,8 km/h (1 Bft) 100,00 %
28.12.2015 11:25 0,9 C 95 % 1032,4 hPa 0,0 l/m 3,6 km/h (1 Bft) N-NO 28 5 min 0,000 mm 0,6 UV-I 251 W/m 0,2 C 0,9 C 4,8 km/h (1 Bft) 96,67 %
28.12.2015 11:30 0,9 C 95 % 1032,4 hPa 0,0 l/m 3,3 km/h (1 Bft) NO 36 5 min 0,000 mm 0,6 UV-I 257 W/m 0,2 C 0,9 C 4,8 km/h (1 Bft) 99,17 %
28.12.2015 11:35 1,1 C 95 % 1032,3 hPa 0,0 l/m 3,1 km/h (1 Bft) NO 35 5 min 0,000 mm 0,6 UV-I 260 W/m 0,4 C 1,1 C 4,8 km/h (1 Bft) 98,29 %
28.12.2015 11:40 1,2 C 95 % 1032,3 hPa 0,0 l/m 3,0 km/h (1 Bft) NO 34 5 min 0,000 mm 0,6 UV-I 264 W/m 0,5 C 1,2 C 4,8 km/h (1 Bft) 98,20 %
28.12.2015 11:45 1,3 C 95 % 1032,2 hPa 0,0 l/m 2,8 km/h (1 Bft) NO 34 5 min 0,000 mm 0,6 UV-I 267 W/m 0,6 C 1,3 C 4,8 km/h (1 Bft) 97,46 %
28.12.2015 11:50 1,5 C 94 % 1032,1 hPa 0,0 l/m 2,9 km/h (1 Bft) NO 34 5 min 0,000 mm 0,6 UV-I 269 W/m 0,6 C 1,5 C 4,8 km/h (1 Bft) 97,48 %
28.12.2015 11:55 1,6 C 94 % 1032,0 hPa 0,0 l/m 2,0 km/h (1 Bft) NO 34 5 min 0,000 mm 0,6 UV-I 272 W/m 0,7 C 1,6 C 3,2 km/h (1 Bft) 97,46 %
28.12.2015 12:00 1,7 C 94 % 1031,9 hPa 0,0 l/m 1,9 km/h (1 Bft) NO 34 5 min 0,076 mm 0,6 UV-I 275 W/m 0,8 C 1,7 C 3,2 km/h (1 Bft) 96,69 %
28.12.2015 12:05 1,9 C 93 % 1031,9 hPa 0,0 l/m 2,4 km/h (1 Bft) NO 34 5 min 0,000 mm 0,6 UV-I 278 W/m 0,9 C 1,9 C 4,8 km/h (1 Bft) 96,67 %
28.12.2015 12:10 2,2 C 92 % 1031,8 hPa 0,0 l/m 2,9 km/h (1 Bft) NO 40 5 min 0,000 mm 0,6 UV-I 280 W/m 1,0 C 2,2 C 4,8 km/h (1 Bft) 97,25 %
28.12.2015 12:15 2,3 C 92 % 1031,8 hPa 0,0 l/m 3,0 km/h (1 Bft) NO 40 5 min 0,000 mm 0,6 UV-I 283 W/m 1,1 C 2,3 C 4,8 km/h (1 Bft) 99,15 %
28.12.2015 12:20 2,3 C 91 % 1031,7 hPa 0,0 l/m 3,7 km/h (1 Bft) NO 44 5 min 0,000 mm 0,6 UV-I 284 W/m 1,0 C 2,3 C 4,8 km/h (1 Bft) 98,37 %
28.12.2015 12:25 2,4 C 92 % 1031,7 hPa 0,0 l/m 4,2 km/h (1 Bft) N-NO 30 5 min 0,000 mm 0,6 UV-I 279 W/m 1,2 C 2,4 C 8,0 km/h (2 Bft) 100,00 %
28.12.2015 12:30 2,4 C 91 % 1031,6 hPa 0,0 l/m 5,1 km/h (1 Bft) N-NO 13 5 min 0,000 mm 0,6 UV-I 281 W/m 1,1 C 2,4 C 6,4 km/h (2 Bft) 99,07 %
28.12.2015 12:35 2,6 C 92 % 1031,6 hPa 0,0 l/m 3,6 km/h (1 Bft) N-NO 17 5 min 0,000 mm 0,6 UV-I 279 W/m 1,4 C 2,6 C 8,0 km/h (2 Bft) 99,15 %
28.12.2015 12:40 2,8 C 91 % 1031,5 hPa 0,0 l/m 0,6 km/h (0 Bft) N-NO 19 5 min 0,000 mm 0,6 UV-I 279 W/m 1,5 C 2,8 C 3,2 km/h (1 Bft) 100,00 %
28.12.2015 12:45 2,9 C 91 % 1031,4 hPa 0,0 l/m 0,3 km/h (0 Bft) N 11 5 min 0,000 mm 0,6 UV-I 277 W/m 1,6 C 2,9 C 1,6 km/h (1 Bft) 100,00 %
28.12.2015 12:50 2,9 C 90 % 1031,3 hPa 0,0 l/m 0,4 km/h (0 Bft) N 11 5 min 0,000 mm 0,6 UV-I 275 W/m 1,4 C 2,9 C 3,2 km/h (1 Bft) 97,46 %
28.12.2015 12:55 3,3 C 90 % 1031,2 hPa 0,0 l/m 1,3 km/h (1 Bft) N 11 5 min 0,000 mm 0,6 UV-I 272 W/m 1,8 C 3,3 C 3,2 km/h (1 Bft) 98,37 %
28.12.2015 13:00 3,6 C 90 % 1031,1 hPa 0,0 l/m 0,7 km/h (0 Bft) N 11 5 min 0,102 mm 0,6 UV-I 269 W/m 2,1 C 3,6 C 3,2 km/h (1 Bft) 97,46 %
28.12.2015 13:05 3,7 C 90 % 1031,0 hPa 0,0 l/m 1,2 km/h (1 Bft) N 11 5 min 0,000 mm 0,6 UV-I 266 W/m 2,2 C 3,7 C 3,2 km/h (1 Bft) 96,61 %
28.12.2015 13:10 3,8 C 89 % 1031,0 hPa 0,0 l/m 1,8 km/h (1 Bft) N 11 5 min 0,000 mm 0,6 UV-I 263 W/m 2,2 C 3,8 C 4,8 km/h (1 Bft) 97,14 %
28.12.2015 13:15 4,1 C 89 % 1030,9 hPa 0,0 l/m 2,4 km/h (1 Bft) N-NO 14 5 min 0,000 mm 0,6 UV-I 260 W/m 2,5 C 4,1 C 4,8 km/h (1 Bft) 97,46 %
28.12.2015 13:20 4,1 C 89 % 1030,8 hPa 0,0 l/m 3,0 km/h (1 Bft) N-NO 20 5 min 0,000 mm 0,5 UV-I 257 W/m 2,5 C 4,1 C 4,8 km/h (1 Bft) 97,46 %
28.12.2015 13:25 4,1 C 87 % 1030,8 hPa 0,0 l/m 1,6 km/h (1 Bft) N-NO 20 5 min 0,000 mm 0,5 UV-I 254 W/m 2,1 C 4,1 C 3,2 km/h (1 Bft) 99,17 %
28.12.2015 13:30 4,2 C 88 % 1030,7 hPa 0,0 l/m 1,8 km/h (1 Bft) N-NO 20 5 min 0,000 mm 0,5 UV-I 253 W/m 2,4 C 4,2 C 3,2 km/h (1 Bft) 100,00 %
28.12.2015 13:35 4,3 C 88 % 1030,6 hPa 0,0 l/m 0,9 km/h (0 Bft) N-NO 20 5 min 0,000 mm 0,5 UV-I 254 W/m 2,5 C 4,3 C 3,2 km/h (1 Bft) 99,17 %
28.12.2015 13:40 4,5 C 85 % 1030,6 hPa 0,0 l/m 0,4 km/h (0 Bft) N-NO 20 5 min 0,000 mm 0,5 UV-I 253 W/m 2,2 C 4,5 C 1,6 km/h (1 Bft) 100,00 %
28.12.2015 13:45 4,7 C 85 % 1030,5 hPa 0,0 l/m 0,8 km/h (0 Bft) N-NO 20 5 min 0,000 mm 0,5 UV-I 248 W/m 2,4 C 4,7 C 3,2 km/h (1 Bft) 98,35 %
28.12.2015 13:50 4,7 C 85 % 1030,5 hPa 0,0 l/m 1,9 km/h (1 Bft) N-NO 19 5 min 0,000 mm 0,3 UV-I 242 W/m 2,4 C 4,7 C 4,8 km/h (1 Bft) 99,17 %
28.12.2015 13:55 4,7 C 85 % 1030,5 hPa 0,0 l/m 2,9 km/h (1 Bft) N-NO 23 5 min 0,000 mm 0,0 UV-I 239 W/m 2,4 C 4,7 C 4,8 km/h (1 Bft) 99,15 %
28.12.2015 14:00 4,7 C 86 % 1030,5 hPa 0,0 l/m 3,4 km/h (1 Bft) N-NO 24 5 min 0,000 mm 0,0 UV-I 241 W/m 2,6 C 4,7 C 4,8 km/h (1 Bft) 100,00 %
28.12.2015 14:10 4,9 C 85 % 1030,4 hPa 0,0 l/m 2,8 km/h (1 Bft) N-NO 29 10 min 0,101 mm 0,0 UV-I 237 W/m 2,6 C 4,9 C 3,2 km/h (1 Bft) 99,03 %
28.12.2015 14:20 5,1 C 87 % 1030,2 hPa 0,0 l/m 0,2 km/h (0 Bft) N-NO 26 10 min 0,000 mm 0,0 UV-I 207 W/m 3,1 C 5,1 C 1,6 km/h (1 Bft) 99,62 %
28.12.2015 14:25 5,1 C 85 % 1030,1 hPa 0,0 l/m 0,2 km/h (0 Bft) N-NO 26 5 min 0,000 mm 0,0 UV-I 197 W/m 2,8 C 5,1 C 1,6 km/h (1 Bft) 96,52 %
28.12.2015 14:30 5,1 C 85 % 1030,1 hPa 0,0 l/m 0,3 km/h (0 Bft) N-NO 26 5 min 0,000 mm 0,0 UV-I 177 W/m 2,8 C 5,1 C 1,6 km/h (1 Bft) 96,52 %
28.12.2015 14:35 5,1 C 87 % 1030,2 hPa 0,0 l/m 0,2 km/h (0 Bft) N-NO 25 5 min 0,000 mm 0,0 UV-I 160 W/m 3,1 C 5,1 C 1,6 km/h (1 Bft) 95,97 %
28.12.2015 14:40 5,0 C 86 % 1030,1 hPa 0,0 l/m 0,3 km/h (0 Bft) N-NO 24 5 min 0,000 mm 0,0 UV-I 144 W/m 2,9 C 5,0 C 1,6 km/h (1 Bft) 97,39 %
28.12.2015 14:45 5,0 C 87 % 1030,1 hPa 0,0 l/m 1,1 km/h (1 Bft) N-NO 24 5 min 0,000 mm 0,0 UV-I 132 W/m 3,0 C 5,0 C 4,8 km/h (1 Bft) 98,29 %
28.12.2015 14:50 4,9 C 86 % 1030,1 hPa 0,0 l/m 2,0 km/h (1 Bft) N-NO 24 5 min 0,000 mm 0,0 UV-I 121 W/m 2,8 C 4,9 C 3,2 km/h (1 Bft) 99,13 %
28.12.2015 14:55 4,8 C 88 % 1030,0 hPa 0,0 l/m 1,2 km/h (1 Bft) N-NO 24 5 min 0,000 mm 0,0 UV-I 110 W/m 3,0 C 4,8 C 3,2 km/h (1 Bft) 97,25 %
28.12.2015 15:00 4,8 C 87 % 1029,9 hPa 0,0 l/m 1,3 km/h (1 Bft) N-NO 24 5 min 0,077 mm 0,0 UV-I 101 W/m 2,8 C 4,8 C 3,2 km/h (1 Bft) 100,00 %
28.12.2015 15:05 4,9 C 87 % 1029,9 hPa 0,0 l/m 1,2 km/h (1 Bft) N-NO 24 5 min 0,000 mm 0,0 UV-I 91 W/m 2,9 C 4,9 C 3,2 km/h (1 Bft) 99,17 %
28.12.2015 15:10 5,1 C 86 % 1029,9 hPa 0,0 l/m 0,5 km/h (0 Bft) N-NO 24 5 min 0,000 mm 0,0 UV-I 82 W/m 3,0 C 5,1 C 1,6 km/h (1 Bft) 99,12 %
28.12.2015 15:15 5,2 C 85 % 1029,9 hPa 0,0 l/m 0,0 km/h (0 Bft) N-NO 24 5 min 0,000 mm 0,0 UV-I 74 W/m 2,9 C 5,2 C 0,0 km/h (0 Bft) 99,15 %
28.12.2015 15:20 5,2 C 85 % 1029,9 hPa 0,0 l/m 0,1 km/h (0 Bft) N-NO 24 5 min 0,000 mm 0,0 UV-I 66 W/m 2,9 C 5,2 C 1,6 km/h (1 Bft) 99,08 %
28.12.2015 15:25 5,1 C 85 % 1029,9 hPa 0,0 l/m 0,7 km/h (0 Bft) N-NO 24 5 min 0,000 mm 0,0 UV-I 58 W/m 2,8 C 5,1 C 1,6 km/h (1 Bft) 100,00 %
28.12.2015 15:30 4,9 C 86 % 1029,9 hPa 0,0 l/m 0,2 km/h (0 Bft) N-NO 24 0 min 0,000 mm 0,0 UV-I 49 W/m 2,8 C 4,9 C 1,6 km/h (1 Bft) 99,13 %
28.12.2015 15:35 4,6 C 87 % 1029,9 hPa 0,0 l/m 0,1 km/h (0 Bft) N-NO 24 0 min 0,000 mm 0,0 UV-I 42 W/m 2,6 C 4,6 C 1,6 km/h (1 Bft) 99,11 %
28.12.2015 15:40 4,4 C 88 % 1029,8 hPa 0,0 l/m 0,7 km/h (0 Bft) N-NO 24 0 min 0,000 mm 0,0 UV-I 34 W/m 2,6 C 4,4 C 1,6 km/h (1 Bft) 100,00 %
28.12.2015 15:45 4,3 C 88 % 1029,8 hPa 0,0 l/m 0,1 km/h (0 Bft) N-NO 24 0 min 0,000 mm 0,0 UV-I 29 W/m 2,5 C 4,3 C 1,6 km/h (1 Bft) 96,80 %
28.12.2015 15:50 4,0 C 88 % 1029,9 hPa 0,0 l/m 0,0 km/h (0 Bft) N-NO 24 0 min 0,000 mm 0,0 UV-I 26 W/m 2,2 C 4,0 C 0,0 km/h (0 Bft) 99,12 %
28.12.2015 15:55 3,7 C 89 % 1029,9 hPa 0,0 l/m 0,0 km/h (0 Bft) N-NO 24 5 min 0,000 mm 0,0 UV-I 24 W/m 2,1 C 3,7 C 1,6 km/h (1 Bft) 97,52 %
28.12.2015 16:00 3,4 C 90 % 1029,8 hPa 0,0 l/m 0,0 km/h (0 Bft) N-NO 24 5 min 0,025 mm 0,0 UV-I 21 W/m 1,9 C 3,4 C 0,0 km/h (0 Bft) 97,32 %
28.12.2015 16:05 3,3 C 90 % 1029,8 hPa 0,0 l/m 0,5 km/h (0 Bft) N-NO 24 0 min 0,000 mm 0,0 UV-I 19 W/m 1,8 C 3,3 C 1,6 km/h (1 Bft) 96,34 %
28.12.2015 16:15 3,2 C 91 % 1029,9 hPa 0,0 l/m 0,0 km/h (0 Bft) N-NO 24 0 min 0,000 mm 0,0 UV-I 11 W/m 1,9 C 3,2 C 0,0 km/h (0 Bft) 97,41 %
28.12.2015 16:20 2,9 C 91 % 1029,9 hPa 0,0 l/m 0,0 km/h (0 Bft) N-NO 24 0 min 0,000 mm 0,0 UV-I 10 W/m 1,6 C 2,9 C 0,0 km/h (0 Bft) 97,50 %
28.12.2015 16:25 2,7 C 93 % 1029,8 hPa 0,0 l/m 0,0 km/h (0 Bft) N-NO 24 0 min 0,000 mm 0,0 UV-I 8 W/m 1,7 C 2,7 C 0,0 km/h (0 Bft) 96,00 %
28.12.2015 16:30 2,4 C 93 % 1029,8 hPa 0,0 l/m 0,0 km/h (0 Bft) N-NO 24 0 min 0,000 mm 0,0 UV-I 6 W/m 1,4 C 2,4 C 1,6 km/h (1 Bft) 96,38 %
28.12.2015 16:35 2,2 C 92 % 1029,7 hPa 0,0 l/m 0,3 km/h (0 Bft) N-NO 24 0 min 0,000 mm 0,0 UV-I 2 W/m 1,0 C 2,2 C 1,6 km/h (1 Bft) 96,52 %
28.12.2015 16:40 1,8 C 94 % 1029,8 hPa 0,0 l/m 0,0 km/h (0 Bft) N-NO 24 0 min 0,000 mm 0,0 UV-I 0 W/m 0,9 C 1,8 C 1,6 km/h (1 Bft) 100,00 %
28.12.2015 16:45 1,9 C 95 % 1029,7 hPa 0,0 l/m 0,0 km/h (0 Bft) N-NO 24 0 min 0,000 mm 0,0 UV-I 0 W/m 1,2 C 1,9 C 0,0 km/h (0 Bft) 98,29 %
28.12.2015 16:50 2,1 C 94 % 1029,8 hPa 0,0 l/m 0,0 km/h (0 Bft) N-NO 24 0 min 0,000 mm 0,0 UV-I 0 W/m 1,2 C 2,1 C 0,0 km/h (0 Bft) 100,00 %
28.12.2015 16:55 1,8 C 94 % 1029,8 hPa 0,0 l/m 0,2 km/h (0 Bft) N-NO 24 0 min 0,000 mm 0,0 UV-I 0 W/m 0,9 C 1,8 C 1,6 km/h (1 Bft) 100,00 %
28.12.2015 17:00 1,6 C 94 % 1029,9 hPa 0,0 l/m 1,0 km/h (0 Bft) N-NO 24 0 min 0,000 mm 0,0 UV-I 0 W/m 0,7 C 1,6 C 1,6 km/h (1 Bft) 99,21 %
28.12.2015 17:05 1,4 C 95 % 1029,9 hPa 0,0 l/m 0,4 km/h (0 Bft) N-NO 24 0 min 0,000 mm 0,0 UV-I 0 W/m 0,7 C 1,4 C 1,6 km/h (1 Bft) 98,78 %
28.12.2015 17:15 1,7 C 96 % 1030,1 hPa 0,0 l/m 0,9 km/h (0 Bft) N-NO 24 0 min 0,000 mm 0,0 UV-I 0 W/m 1,1 C 1,7 C 1,6 km/h (1 Bft) 99,62 %
28.12.2015 17:20 1,7 C 95 % 1030,1 hPa 0,0 l/m 0,9 km/h (0 Bft) N-NO 24 0 min 0,000 mm 0,0 UV-I 0 W/m 1,0 C 1,7 C 1,6 km/h (1 Bft) 100,00 %
28.12.2015 17:25 1,7 C 95 % 1030,1 hPa 0,0 l/m 1,1 km/h (1 Bft) N-NO 24 0 min 0,000 mm 0,0 UV-I 0 W/m 1,0 C 1,7 C 1,6 km/h (1 Bft) 99,21 %
28.12.2015 17:30 1,3 C 94 % 1030,1 hPa 0,0 l/m 0,2 km/h (0 Bft) N-NO 24 0 min 0,000 mm 0,0 UV-I 0 W/m 0,4 C 1,3 C 1,6 km/h (1 Bft) 100,00 %
28.12.2015 17:35 0,9 C 95 % 1030,1 hPa 0,0 l/m 0,7 km/h (0 Bft) O-NO 67 0 min 0,000 mm 0,0 UV-I 0 W/m 0,2 C 0,9 C 3,2 km/h (1 Bft) 98,17 %
28.12.2015 17:40 1,3 C 96 % 1030,1 hPa 0,0 l/m 1,8 km/h (1 Bft) O 84 0 min 0,000 mm 0,0 UV-I 0 W/m 0,7 C 1,3 C 3,2 km/h (1 Bft) 99,15 %
28.12.2015 17:45 1,3 C 96 % 1030,0 hPa 0,0 l/m 3,7 km/h (1 Bft) O 86 0 min 0,000 mm 0,0 UV-I 0 W/m 0,7 C 1,3 C 4,8 km/h (1 Bft) 99,21 %
28.12.2015 17:50 1,3 C 96 % 1030,0 hPa 0,0 l/m 2,0 km/h (1 Bft) O 96 0 min 0,000 mm 0,0 UV-I 0 W/m 0,7 C 1,3 C 4,8 km/h (1 Bft) 100,00 %
28.12.2015 17:55 1,3 C 96 % 1030,0 hPa 0,0 l/m 0,1 km/h (0 Bft) O 96 0 min 0,000 mm 0,0 UV-I 0 W/m 0,7 C 1,3 C 1,6 km/h (1 Bft) 98,40 %
28.12.2015 18:00 1,1 C 96 % 1030,0 hPa 0,0 l/m 1,4 km/h (1 Bft) O 96 0 min 0,000 mm 0,0 UV-I 0 W/m 0,5 C 1,1 C 3,2 km/h (1 Bft) 100,00 %
28.12.2015 18:05 0,9 C 96 % 1030,0 hPa 0,0 l/m 0,0 km/h (0 Bft) O 96 0 min 0,000 mm 0,0 UV-I 0 W/m 0,3 C 0,9 C 1,6 km/h (1 Bft) 98,39 %
28.12.2015 18:10 0,9 C 96 % 1030,0 hPa 0,0 l/m 1,0 km/h (0 Bft) O 96 0 min 0,000 mm 0,0 UV-I 0 W/m 0,3 C 0,9 C 3,2 km/h (1 Bft) 99,10 %
28.12.2015 18:15 0,7 C 96 % 1030,0 hPa 0,0 l/m 1,1 km/h (1 Bft) O 96 0 min 0,000 mm 0,0 UV-I 0 W/m 0,1 C 0,7 C 3,2 km/h (1 Bft) 96,61 %
28.12.2015 18:20 0,6 C 96 % 1030,0 hPa 0,0 l/m 2,3 km/h (1 Bft) O 96 0 min 0,000 mm 0,0 UV-I 0 W/m 0,0 C 0,6 C 3,2 km/h (1 Bft) 96,52 %
28.12.2015 18:25 0,5 C 96 % 1030,0 hPa 0,0 l/m 1,7 km/h (1 Bft) O 96 0 min 0,000 mm 0,0 UV-I 0 W/m -0,1 C 0,5 C 3,2 km/h (1 Bft) 97,50 %
28.12.2015 18:30 0,6 C 96 % 1030,1 hPa 0,0 l/m 1,7 km/h (1 Bft) O 96 0 min 0,000 mm 0,0 UV-I 0 W/m 0,0 C 0,6 C 3,2 km/h (1 Bft) 98,17 %
28.12.2015 18:35 0,7 C 97 % 1030,1 hPa 0,0 l/m 1,7 km/h (1 Bft) O 96 0 min 0,000 mm 0,0 UV-I 0 W/m 0,3 C 0,7 C 3,2 km/h (1 Bft) 97,62 %
28.12.2015 18:40 0,9 C 97 % 1030,2 hPa 0,0 l/m 0,3 km/h (0 Bft) O 96 0 min 0,000 mm 0,0 UV-I 0 W/m 0,5 C 0,9 C 1,6 km/h (1 Bft) 97,32 %
28.12.2015 18:45 1,2 C 97 % 1030,2 hPa 0,0 l/m 0,0 km/h (0 Bft) O 96 0 min 0,000 mm 0,0 UV-I 0 W/m 0,8 C 1,2 C 0,0 km/h (0 Bft) 96,69 %
28.12.2015 18:50 0,8 C 95 % 1030,2 hPa 0,0 l/m 0,9 km/h (0 Bft) O 96 0 min 0,000 mm 0,0 UV-I 0 W/m 0,1 C 0,8 C 3,2 km/h (1 Bft) 97,56 %
28.12.2015 18:55 0,4 C 95 % 1030,1 hPa 0,0 l/m 1,9 km/h (1 Bft) O 96 0 min 0,000 mm 0,0 UV-I 0 W/m -0,3 C 0,4 C 3,2 km/h (1 Bft) 98,26 %
28.12.2015 19:00 0,3 C 96 % 1030,1 hPa 0,0 l/m 1,0 km/h (0 Bft) O 96 0 min 0,000 mm 0,0 UV-I 0 W/m -0,3 C 0,3 C 3,2 km/h (1 Bft) 99,15 %
28.12.2015 19:05 0,5 C 97 % 1030,1 hPa 0,0 l/m 0,9 km/h (0 Bft) O 96 0 min 0,000 mm 0,0 UV-I 0 W/m 0,1 C 0,5 C 1,6 km/h (1 Bft) 99,07 %
28.12.2015 19:10 0,6 C 97 % 1030,1 hPa 0,0 l/m 0,1 km/h (0 Bft) O 96 0 min 0,000 mm 0,0 UV-I 0 W/m 0,2 C 0,6 C 1,6 km/h (1 Bft) 100,00 %
28.12.2015 19:15 0,4 C 97 % 1030,1 hPa 0,0 l/m 1,6 km/h (1 Bft) O 96 0 min 0,000 mm 0,0 UV-I 0 W/m -0,0 C 0,4 C 3,2 km/h (1 Bft) 100,00 %
28.12.2015 19:20 0,3 C 97 % 1030,1 hPa 0,0 l/m 1,6 km/h (1 Bft) O 96 0 min 0,000 mm 0,0 UV-I 0 W/m -0,1 C 0,3 C 3,2 km/h (1 Bft) 98,33 %
28.12.2015 19:25 0,7 C 97 % 1030,1 hPa 0,0 l/m 1,3 km/h (1 Bft) O 96 0 min 0,000 mm 0,0 UV-I 0 W/m 0,3 C 0,7 C 3,2 km/h (1 Bft) 100,00 %
28.12.2015 19:30 0,6 C 97 % 1030,2 hPa 0,0 l/m 0,7 km/h (0 Bft) O 96 0 min 0,000 mm 0,0 UV-I 0 W/m 0,2 C 0,6 C 3,2 km/h (1 Bft) 99,12 %
28.12.2015 19:35 0,6 C 97 % 1030,2 hPa 0,0 l/m 1,5 km/h (1 Bft) O 96 0 min 0,000 mm 0,0 UV-I 0 W/m 0,2 C 0,6 C 3,2 km/h (1 Bft) 100,00 %
28.12.2015 19:40 0,6 C 97 % 1030,2 hPa 0,0 l/m 1,9 km/h (1 Bft) O 96 0 min 0,000 mm 0,0 UV-I 0 W/m 0,2 C 0,6 C 3,2 km/h (1 Bft) 100,00 %
28.12.2015 19:45 0,4 C 97 % 1030,2 hPa 0,0 l/m 1,6 km/h (1 Bft) O 96 0 min 0,000 mm 0,0 UV-I 0 W/m -0,0 C 0,4 C 3,2 km/h (1 Bft) 99,17 %
28.12.2015 19:50 0,4 C 97 % 1030,3 hPa 0,0 l/m 2,0 km/h (1 Bft) O 96 0 min 0,000 mm 0,0 UV-I 0 W/m -0,0 C 0,4 C 3,2 km/h (1 Bft) 99,19 %
28.12.2015 19:55 0,3 C 97 % 1030,4 hPa 0,0 l/m 1,5 km/h (1 Bft) O 96 0 min 0,000 mm 0,0 UV-I 0 W/m -0,1 C 0,3 C 3,2 km/h (1 Bft) 98,29 %
28.12.2015 20:00 0,1 C 97 % 1030,4 hPa 0,0 l/m 1,2 km/h (1 Bft) O 96 0 min 0,000 mm 0,0 UV-I 0 W/m -0,3 C 0,1 C 1,6 km/h (1 Bft) 99,13 %
28.12.2015 20:05 0,6 C 97 % 1030,3 hPa 0,0 l/m 2,9 km/h (1 Bft) O-NO 77 0 min 0,000 mm 0,0 UV-I 0 W/m 0,2 C 0,6 C 4,8 km/h (1 Bft) 99,11 %
28.12.2015 20:10 1,1 C 98 % 1030,3 hPa 0,0 l/m 3,0 km/h (1 Bft) O-NO 77 0 min 0,000 mm 0,0 UV-I 0 W/m 0,8 C 1,1 C 4,8 km/h (1 Bft) 100,00 %
28.12.2015 20:15 1,3 C 98 % 1030,2 hPa 0,0 l/m 2,6 km/h (1 Bft) O-NO 77 0 min 0,000 mm 0,0 UV-I 0 W/m 1,0 C 1,3 C 3,2 km/h (1 Bft) 100,00 %
28.12.2015 20:20 1,2 C 98 % 1030,3 hPa 0,0 l/m 2,5 km/h (1 Bft) O-NO 77 0 min 0,000 mm 0,0 UV-I 0 W/m 0,9 C 1,2 C 4,8 km/h (1 Bft) 99,17 %
28.12.2015 20:25 1,6 C 98 % 1030,3 hPa 0,0 l/m 3,3 km/h (1 Bft) O-NO 75 0 min 0,000 mm 0,0 UV-I 0 W/m 1,3 C 1,6 C 6,4 km/h (2 Bft) 98,25 %
28.12.2015 20:30 1,6 C 97 % 1030,3 hPa 0,0 l/m 1,7 km/h (1 Bft) O-NO 75 0 min 0,000 mm 0,0 UV-I 0 W/m 1,2 C 1,6 C 3,2 km/h (1 Bft) 98,43 %
28.12.2015 20:35 1,1 C 94 % 1030,4 hPa 0,0 l/m 1,6 km/h (1 Bft) O-NO 75 0 min 0,000 mm 0,0 UV-I 0 W/m 0,2 C 1,1 C 3,2 km/h (1 Bft) 99,10 %
28.12.2015 20:40 -0,2 C 94 % 1030,4 hPa 0,0 l/m 0,1 km/h (0 Bft) O-NO 75 0 min 0,000 mm 0,0 UV-I 0 W/m -1,0 C -0,2 C 1,6 km/h (1 Bft) 96,52 %
28.12.2015 20:45 -0,4 C 96 % 1030,3 hPa 0,0 l/m 1,8 km/h (1 Bft) O 93 0 min 0,000 mm 0,0 UV-I 0 W/m -1,0 C -0,4 C 3,2 km/h (1 Bft) 94,78 %
28.12.2015 20:50 -0,4 C 96 % 1030,3 hPa 0,0 l/m 1,1 km/h (1 Bft) O 93 0 min 0,000 mm 0,0 UV-I 0 W/m -1,0 C -0,4 C 3,2 km/h (1 Bft) 96,58 %
28.12.2015 20:55 0,0 C 97 % 1030,2 hPa 0,0 l/m 1,8 km/h (1 Bft) O 93 0 min 0,000 mm 0,0 UV-I 0 W/m -0,4 C 0,0 C 3,2 km/h (1 Bft) 98,31 %
28.12.2015 21:00 -0,1 C 97 % 1030,2 hPa 0,0 l/m 0,5 km/h (0 Bft) O 93 0 min 0,000 mm 0,0 UV-I 0 W/m -0,5 C -0,1 C 1,6 km/h (1 Bft) 97,46 %
28.12.2015 21:05 -0,2 C 97 % 1030,2 hPa 0,0 l/m 0,1 km/h (0 Bft) O 93 0 min 0,000 mm 0,0 UV-I 0 W/m -0,6 C -0,2 C 1,6 km/h (1 Bft) 96,58 %
28.12.2015 21:10 0,0 C 97 % 1030,1 hPa 0,0 l/m 0,1 km/h (0 Bft) O 93 0 min 0,000 mm 0,0 UV-I 0 W/m -0,4 C 0,0 C 1,6 km/h (1 Bft) 97,52 %
28.12.2015 21:15 0,1 C 97 % 1030,2 hPa 0,0 l/m 0,0 km/h (0 Bft) O 93 0 min 0,000 mm 0,0 UV-I 0 W/m -0,3 C 0,1 C 0,0 km/h (0 Bft) 98,33 %
28.12.2015 21:20 0,0 C 97 % 1030,1 hPa 0,0 l/m 0,5 km/h (0 Bft) O 93 0 min 0,000 mm 0,0 UV-I 0 W/m -0,4 C 0,0 C 1,6 km/h (1 Bft) 99,11 %
28.12.2015 21:25 -0,2 C 97 % 1030,0 hPa 0,0 l/m 0,2 km/h (0 Bft) O 93 0 min 0,000 mm 0,0 UV-I 0 W/m -0,6 C -0,2 C 1,6 km/h (1 Bft) 97,46 %
28.12.2015 21:30 -0,2 C 97 % 1030,1 hPa 0,0 l/m 0,3 km/h (0 Bft) O 93 0 min 0,000 mm 0,0 UV-I 0 W/m -0,6 C -0,2 C 1,6 km/h (1 Bft) 98,37 %
28.12.2015 21:35 -0,2 C 97 % 1030,2 hPa 0,0 l/m 1,4 km/h (1 Bft) O 93 0 min 0,000 mm 0,0 UV-I 0 W/m -0,6 C -0,2 C 3,2 km/h (1 Bft) 99,08 %
28.12.2015 21:40 -0,3 C 97 % 1030,1 hPa 0,0 l/m 0,9 km/h (0 Bft) O 93 0 min 0,000 mm 0,0 UV-I 0 W/m -0,7 C -0,3 C 1,6 km/h (1 Bft) 99,13 %
28.12.2015 21:45 -0,4 C 97 % 1030,1 hPa 0,0 l/m 0,0 km/h (0 Bft) O 93 0 min 0,000 mm 0,0 UV-I 0 W/m -0,8 C -0,4 C 0,0 km/h (0 Bft) 99,15 %
28.12.2015 21:50 -0,3 C 97 % 1030,1 hPa 0,0 l/m 0,0 km/h (0 Bft) O 93 0 min 0,000 mm 0,0 UV-I 0 W/m -0,7 C -0,3 C 0,0 km/h (0 Bft) 98,35 %
28.12.2015 21:55 -0,1 C 98 % 1030,0 hPa 0,0 l/m 0,0 km/h (0 Bft) O 93 0 min 0,000 mm 0,0 UV-I 0 W/m -0,4 C -0,1 C 0,0 km/h (0 Bft) 99,17 %
28.12.2015 22:00 0,0 C 98 % 1030,0 hPa 0,0 l/m 0,1 km/h (0 Bft) O 93 0 min 0,000 mm 0,0 UV-I 0 W/m -0,3 C 0,0 C 1,6 km/h (1 Bft) 99,11 %
28.12.2015 22:05 0,1 C 98 % 1030,0 hPa 0,0 l/m 0,2 km/h (0 Bft) O 93 0 min 0,000 mm 0,0 UV-I 0 W/m -0,2 C 0,1 C 1,6 km/h (1 Bft) 99,15 %
28.12.2015 22:10 0,1 C 98 % 1030,0 hPa 0,0 l/m 0,0 km/h (0 Bft) O 93 0 min 0,000 mm 0,0 UV-I 0 W/m -0,2 C 0,1 C 0,0 km/h (0 Bft) 100,00 %
28.12.2015 22:15 -0,3 C 98 % 1029,9 hPa 0,0 l/m 0,9 km/h (0 Bft) O 93 0 min 0,000 mm 0,0 UV-I 0 W/m -0,6 C -0,3 C 1,6 km/h (1 Bft) 100,00 %
28.12.2015 22:20 -0,4 C 97 % 1030,0 hPa 0,0 l/m 0,6 km/h (0 Bft) O 93 0 min 0,000 mm 0,0 UV-I 0 W/m -0,8 C -0,4 C 1,6 km/h (1 Bft) 100,00 %
28.12.2015 22:25 -0,4 C 98 % 1029,9 hPa 0,0 l/m 0,2 km/h (0 Bft) O 93 0 min 0,000 mm 0,0 UV-I 0 W/m -0,7 C -0,4 C 1,6 km/h (1 Bft) 98,45 %
28.12.2015 22:30 -0,5 C 98 % 1030,0 hPa 0,0 l/m 0,0 km/h (0 Bft) O 93 0 min 0,000 mm 0,0 UV-I 0 W/m -0,8 C -0,5 C 0,0 km/h (0 Bft) 100,00 %
28.12.2015 22:35 -0,9 C 97 % 1030,0 hPa 0,0 l/m 0,0 km/h (0 Bft) O 93 0 min 0,000 mm 0,0 UV-I 0 W/m -1,3 C -0,9 C 0,0 km/h (0 Bft) 99,17 %
28.12.2015 22:40 -0,8 C 98 % 1029,9 hPa 0,0 l/m 0,0 km/h (0 Bft) O 93 0 min 0,000 mm 0,0 UV-I 0 W/m -1,1 C -0,8 C 0,0 km/h (0 Bft) 100,00 %
28.12.2015 22:45 -0,6 C 98 % 1029,9 hPa 0,0 l/m 0,0 km/h (0 Bft) O 93 0 min 0,000 mm 0,0 UV-I 0 W/m -0,9 C -0,6 C 1,6 km/h (1 Bft) 100,00 %
28.12.2015 22:50 -0,8 C 98 % 1029,9 hPa 0,0 l/m 0,1 km/h (0 Bft) O 93 0 min 0,000 mm 0,0 UV-I 0 W/m -1,1 C -0,8 C 1,6 km/h (1 Bft) 99,19 %
28.12.2015 22:55 -0,9 C 98 % 1029,9 hPa 0,0 l/m 0,6 km/h (0 Bft) O 93 0 min 0,000 mm 0,0 UV-I 0 W/m -1,2 C -0,9 C 1,6 km/h (1 Bft) 99,13 %
28.12.2015 23:00 -1,2 C 97 % 1029,9 hPa 0,0 l/m 2,8 km/h (1 Bft) S-SO 153 0 min 0,000 mm 0,0 UV-I 0 W/m -1,6 C -1,2 C 4,8 km/h (1 Bft) 96,52 %
28.12.2015 23:05 -1,3 C 97 % 1029,8 hPa 0,0 l/m 2,3 km/h (1 Bft) S-SO 153 0 min 0,000 mm 0,0 UV-I 0 W/m -1,7 C -1,3 C 3,2 km/h (1 Bft) 97,37 %
28.12.2015 23:10 -1,2 C 98 % 1029,7 hPa 0,0 l/m 1,8 km/h (1 Bft) S-SO 153 0 min 0,000 mm 0,0 UV-I 0 W/m -1,5 C -1,2 C 3,2 km/h (1 Bft) 96,85 %
28.12.2015 23:15 -1,1 C 98 % 1029,7 hPa 0,0 l/m 0,9 km/h (0 Bft) S-SO 153 0 min 0,000 mm 0,0 UV-I 0 W/m -1,4 C -1,1 C 3,2 km/h (1 Bft) 96,40 %
28.12.2015 23:20 -1,3 C 97 % 1029,7 hPa 0,0 l/m 0,9 km/h (0 Bft) S-SO 153 0 min 0,000 mm 0,0 UV-I 0 W/m -1,7 C -1,3 C 3,2 km/h (1 Bft) 98,26 %
28.12.2015 23:25 -1,2 C 98 % 1029,7 hPa 0,0 l/m 1,2 km/h (1 Bft) S-SO 153 0 min 0,000 mm 0,0 UV-I 0 W/m -1,5 C -1,2 C 3,2 km/h (1 Bft) 94,92 %
28.12.2015 23:30 -1,2 C 98 % 1029,8 hPa 0,0 l/m 1,6 km/h (1 Bft) S-SO 153 0 min 0,000 mm 0,0 UV-I 0 W/m -1,5 C -1,2 C 3,2 km/h (1 Bft) 97,50 %
28.12.2015 23:35 -1,2 C 98 % 1029,8 hPa 0,0 l/m 0,8 km/h (0 Bft) S-SO 153 0 min 0,000 mm 0,0 UV-I 0 W/m -1,5 C -1,2 C 3,2 km/h (1 Bft) 98,26 %
28.12.2015 23:40 -1,2 C 98 % 1029,7 hPa 0,0 l/m 2,0 km/h (1 Bft) S-SO 153 0 min 0,000 mm 0,0 UV-I 0 W/m -1,5 C -1,2 C 3,2 km/h (1 Bft) 100,00 %
28.12.2015 23:45 -1,2 C 98 % 1029,7 hPa 0,0 l/m 1,5 km/h (1 Bft) S-SO 153 0 min 0,000 mm 0,0 UV-I 0 W/m -1,5 C -1,2 C 3,2 km/h (1 Bft) 99,08 %
28.12.2015 23:50 -1,2 C 98 % 1029,7 hPa 0,0 l/m 0,1 km/h (0 Bft) S-SO 153 0 min 0,000 mm 0,0 UV-I 0 W/m -1,5 C -1,2 C 1,6 km/h (1 Bft) 99,15 %
28.12.2015 23:55 -1,1 C 98 % 1029,6 hPa 0,0 l/m 0,0 km/h (0 Bft) S-SO 153 0 min 0,000 mm 0,0 UV-I 0 W/m -1,4 C -1,1 C 0,0 km/h (0 Bft) 98,26 %
_ Min-Zeit 07:50 13:40 23:55 - 03:05 - - - - - - 07:50 07:50 03:10 20:45
Minimum _ -3,7 C 85 % 1029,6 hPa - 0,0 km/h (0 Bft) - - - - - - -4,1 C -3,7 C 0,0 km/h (0 Bft) 94,78 %
_ Max-Zeit 14:25 02:05 02:00 00:00 04:20 - - 14:10 13:00 11:15 12:20 14:20 15:15 04:20 00:40
Maximum _ 5,2 C 98 % 1034,3 hPa 0,0 l/m 6,8 km/h
NO (2 Bft)
- - 10 min 0,102 mm 0,6 UV-I 284 W/m 3,1 C 5,2 C 11,3 km/h
N-NO (2 Bft)
100,00 %
Durchschnitt _ 0,3 C 95 % 1031,7 hPa #0,0 l/m 1,6 km/h (1 Bft) N-NO - #6:40 h #0,508 mm 0,5 UV-I 158 W/m -0,4 C 0,3 C 3,3 km/h (1 Bft) 98,45 %